Погода в Монте-Плата

Доминиканская Республика     18°48′44″N   69°47′10″W
темп.,
°C
ветер,
м/с
пор.,
м/с
влажн.,
%
обл.,
%
осадки,
мм/ч
давл.,
гПа
погр.,
м
11 апреля, вс
вс1123:00+21ссв147155 0.0 1016141
02:00+19ссв117875 0.0 101422
05:00+18с228376 0.0 101420
08:00+22св137062 0.0 1016279
11:00+28в334111 0.0 10151596
14:00+31ююв332940 0.0 10122065
17:00+28ю65445 0.0 10111083
20:00+22ююв2473100 0.0 101381
12 апреля, пн
пн1223:00+20в2280100 0.0 101538
02:00+19в228399 0.0 101424
05:00+18св118512 0.0 101411
08:00+22зсз017374 0.0 1015180
11:00+29ю34455 0.0 10141457
14:00+31ю5340100 0.0 10121956
17:00+29ю544920 0.0 10111298
20:00+23ююв257395 0.0 1013112
13 апреля, вт
вт1323:00+21ююв118165 0.0 101411
02:00+20ю11860 0.0 101311
05:00+19вюв00910 0.0 101311
08:00+23ю117782 0.0 1014225
11:00+30ююз215132 0.0 10151214
14:00+34юз223354 0.0 10122203
17:00+31всв454396 0.0 10111049
20:00+24с37716 0.0 1014271
14 апреля, ср
ср1423:00+22с24840 0.0 1015103
02:00+21с239043 0.0 101456
05:00+20с249192 0.0 1014104
08:00+24с35740 0.0 1015388
11:00+31с334518 0.0 10151631
14:00+30ссв665193 0.0 1013990
17:00+29св555697 0.1 10121006
20:00+24ссв3781100 0.6 1014410
15 апреля, чт
чт1523:00+23ссв258578 0.0 1015283
02:00+22ссз11940 0.0 101414
05:00+21с11965 0.0 101311
08:00+24всв11821 0.0 1015312
11:00+30ююв33430 0.0 10141482
14:00+34ю65396 0.0 10112280
17:00+30ю66540 0.0 10101233
20:00+25ююв36830 0.1 1013272